[[{"header":{"parameterUnit":"m.s-1","parameterCategory":1,"la1":30.2991,"la2":30.254,"lo1":-89.0895,"lo2":-89.0444,"dy":0.0017,"dx":0.0017,"nx":28,"ny":28,"refTime":"2024-05-24T09:00:00:Z","depth":0,"parameterNumber":2,"parameterNumberName":"U-component_of_WINDS"},"data":[0,0,0,0,0,0,0,0,0,0,0,0,0,0,0,0,0,0,0,0,0,0,0,0,0,0,0,0,0,0,0,0,0,0,0,0,0,0,0,0,0,0,0,0,0,0,0,0,0,0,0,0,0,0,0,0,0,0,1.0953,1.0953,0,1.0964,1.0964,1.0965,1.0918,1.0916,1.0915,1.0914,1.0927,1.0928,1.093,0,0,0,0,0,0,0,0,0,0,0,0,0,1.089,1.0892,1.0953,1.0953,1.0953,1.0964,1.0964,1.0965,1.0918,1.0916,1.0915,1.0913,1.0926,1.0928,1.093,0,0,0,0,0,0,0,0,0,0,0,0,0,1.0911,1.0892,1.0953,1.0931,1.0929,1.0964,1.0964,1.0965,1.0918,1.0916,1.0914,1.0912,1.0925,1.0928,1.093,1.0987,0,0,1.0938,1.0939,0,0,0,0,0,0,0,0,1.091,1.0913,1.0934,1.0933,1.0931,1.0937,1.0947,1.0972,1.0919,1.0923,1.0914,1.0911,1.0932,1.0934,1.094,1.0987,1.0988,1.0938,1.0939,1.094,1.0941,0,0,0,0,0,0,0,1.0909,1.0913,1.0957,1.0935,1.0932,1.0921,1.0921,1.0952,1.0939,1.0922,1.0919,1.0921,1.0931,1.0938,1.094,1.0988,1.0938,1.094,1.0942,1.0943,1.108,1.1082,0,0,0,0,0,0,1.091,1.0912,1.0957,1.0958,1.0915,1.0924,1.0924,1.0937,1.0938,1.0936,1.0922,1.0918,1.0935,1.0938,1.0941,1.1005,1.094,1.0943,1.0944,1.1078,1.108,1.1083,0,0,0,0,0,0,1.0909,1.0914,1.0957,1.0934,1.0938,1.0927,1.0942,1.0939,1.0946,1.0939,1.0936,1.0933,1.0934,1.0937,1.0975,1.1005,1.0944,1.0946,1.1075,1.1078,1.1081,1.1136,0,0,0,0,0,0,1.0907,1.0914,1.0936,1.0935,1.094,1.0991,1.0944,1.094,1.095,1.0945,1.0947,1.0946,1.0932,1.0972,1.0978,1.1007,1.0948,1.1072,1.1077,1.108,1.1131,1.1141,1.1149,0,0,0,0,0,1.0905,1.0952,1.0937,1.0943,1.0966,1.0993,1.0996,1.0979,1.0953,1.0974,1.0969,1.0946,1.1001,1.0976,1.0982,1.1013,1.107,1.1075,1.108,1.1128,1.1139,1.1148,0,0,0,0,0,0,1.0958,1.0951,1.0935,1.0983,1.0989,1.0985,1.1011,1.0992,1.1005,1.1,1.0979,1.098,1.1021,1.1021,1.0993,1.1067,1.1031,1.1038,1.1065,1.1076,1.1084,1.1083,1.095,0,0,0,0,0,1.0975,1.0996,1.099,1.1032,1.1036,1.1023,1.1034,1.102,1.1026,1.1028,1.1026,1.1032,1.1051,1.1063,1.108,1.1131,1.113,1.1156,1.1164,1.1171,1.1177,1.1202,1.1212,1.1099,1.1099,1.1099,0,0,1.101,1.1009,1.1025,1.1043,1.1046,1.1068,1.1026,1.1052,1.1068,1.1032,1.1067,1.1066,1.1071,1.1115,1.1135,1.1117,1.1208,1.1178,1.1183,1.1185,1.1208,1.1219,1.1228,1.1102,1.1101,1.1101,0,0,1.1086,1.1088,1.1123,1.1126,1.1131,1.1122,1.113,1.1129,1.1126,1.1161,1.1134,1.1153,1.1186,1.119,1.1197,1.1273,1.1251,1.1279,1.1323,1.1348,1.1357,1.1365,1.139,1.1399,1.1284,1.1285,1.1285,0,1.1129,1.1162,1.1143,1.117,1.1178,1.1146,1.118,1.1185,1.1195,1.1201,1.1181,1.122,1.1222,1.1265,1.1284,1.1291,1.1299,1.1278,1.1357,1.1365,1.1372,1.1395,1.1405,1.1288,1.1287,1.1287,1.1287,0,1.1215,1.1238,1.1265,1.1274,1.1286,1.1317,1.1301,1.1315,1.13,1.1293,1.1328,1.1329,1.1344,1.1354,1.134,1.1395,1.1383,1.1361,1.1324,1.1386,1.1408,1.1417,1.1292,1.1291,1.129,1.129,0,0,1.1324,1.1321,1.1331,1.1334,1.1336,1.1353,1.1382,1.1397,1.1408,1.1416,1.1439,1.1467,1.1445,1.1452,1.1439,1.1461,1.1518,1.1435,1.1434,1.1449,1.1577,1.1593,1.1604,1.1504,1.1506,1.1507,1.1575,0,1.1397,1.1445,1.1428,1.1477,1.1497,1.1466,1.1491,1.1495,1.1489,1.1505,1.1499,1.1518,1.1489,1.1493,1.1513,1.1507,1.1543,1.1502,1.1524,1.1525,1.1522,1.1615,1.1633,1.1697,1.1584,1.1586,1.1587,0,1.1488,1.1498,1.1549,1.1546,1.1553,1.1576,1.1587,1.1603,1.1606,1.16,1.1608,1.1589,1.1616,1.1581,1.1618,1.159,1.1598,1.1596,1.1598,1.1599,1.1559,1.1617,1.1717,1.1727,1.16,1.1599,1.1598,0,1.156,1.1587,1.162,1.1624,1.1621,1.1637,1.1637,1.1638,1.1647,1.1657,1.1662,1.1675,1.1682,1.1693,1.1678,1.1653,1.1716,1.168,1.1711,1.1711,1.1725,1.1724,1.1827,1.1733,1.1733,1.1733,1.1732,0,1.1642,1.1674,1.1652,1.1672,1.1707,1.1687,1.1721,1.1718,1.1719,1.1737,1.1712,1.173,1.171,1.1727,1.1715,1.1746,1.175,1.1746,1.1742,1.1747,1.1747,1.1751,1.1745,1.1735,1.1735,1.1734,1.1734,0,1.1728,1.1714,1.1748,1.1743,1.1742,1.1767,1.1762,1.1781,1.1773,1.1797,1.1801,1.1789,1.1806,1.1792,1.181,1.1803,1.1843,1.1834,1.1842,1.1839,1.187,1.1866,1.1978,1.199,1.189,1.1891,1.1892,0,1.178,1.1803,1.18,1.181,1.1811,1.1829,1.1837,1.1818,1.1828,1.1833,1.185,1.1865,1.1876,1.1906,1.1898,1.1911,1.1901,1.1939,1.1903,1.1907,1.19,1.1898,1.1899,1.1946,1.1948,1.1949,1.1949,0,1.1873,1.1865,1.1878,1.1889,1.19,1.1907,1.1913,1.1923,1.1903,1.1916,1.1933,1.1941,1.1959,1.1974,1.1984,1.1983,1.1963,1.1961,1.1968,1.1973,1.1976,1.1973,1.186,1.1958,1.1957,1.1957,1.1956,1.1956,1.1943,1.1961,1.1961,1.1976,1.1978,1.1983,1.2,1.1993,1.2007,1.2019,1.2007,1.2027,1.2029,1.204,1.2042,1.2057,1.2042,1.2053,1.2056,1.2058,1.2062,1.1975,1.2059,1.2059,1.2059,1.2059,1.2058,0,1.2033,1.2031,1.2045,1.2053,1.2064,1.2044,1.2049,1.2059,1.2077,1.208,1.2091,1.211,1.2124,1.2118,1.213,1.2143,1.2134,1.2147,1.2145,1.2145,1.2076,1.2068,1.2154,1.2154,1.2154,1.2154,1.2154,1.2154,1.2081,1.2111,1.2102,1.2133,1.213,1.2149,1.2154,1.2158,1.216,1.2182,1.2193,1.2189,1.2187,1.2199,1.2211,1.2208,1.2213,1.2229,1.2223,1.2159,1.215,1.2141,1.2132,1.2231,1.2231,1.229,1.2291,1.2291]},{"header":{"parameterUnit":"m.s-1","parameterCategory":1,"la1":30.2991,"la2":30.254,"lo1":-89.0895,"lo2":-89.0444,"dy":0.0017,"dx":0.0017,"nx":28,"ny":28,"refTime":"2024-05-24T09:00:00:Z","depth":0,"parameterNumber":3,"parameterNumberName":"V-component_of_WINDS"},"data":[0,0,0,0,0,0,0,0,0,0,0,0,0,0,0,0,0,0,0,0,0,0,0,0,0,0,0,0,0,0,0,0,0,0,0,0,0,0,0,0,0,0,0,0,0,0,0,0,0,0,0,0,0,0,0,0,0,0,5.6439,5.6439,0,5.6506,5.6507,5.6507,5.6453,5.645,5.6448,5.6446,5.6508,5.6512,5.6516,0,0,0,0,0,0,0,0,0,0,0,0,0,5.6255,5.6258,5.6438,5.6439,5.644,5.6506,5.6507,5.6508,5.6453,5.645,5.6448,5.6445,5.6507,5.6512,5.6516,0,0,0,0,0,0,0,0,0,0,0,0,0,5.6329,5.626,5.6438,5.6421,5.642,5.6506,5.6507,5.6508,5.6454,5.645,5.6447,5.6444,5.6506,5.6511,5.6517,5.6621,0,0,5.6534,5.6537,0,0,0,0,0,0,0,0,5.6325,5.6336,5.6423,5.6422,5.6422,5.6468,5.6465,5.6545,5.6455,5.6441,5.6446,5.6442,5.6497,5.6503,5.6523,5.6624,5.6626,5.6535,5.6538,5.6541,5.6542,0,0,0,0,0,0,0,5.632,5.6333,5.6465,5.6424,5.6423,5.6407,5.6414,5.648,5.6487,5.6442,5.6438,5.6447,5.6496,5.6518,5.6524,5.6627,5.6534,5.654,5.6543,5.6545,5.6814,5.6818,0,0,0,0,0,0,5.6318,5.6329,5.6463,5.6467,5.6364,5.6414,5.6421,5.6456,5.6486,5.6488,5.645,5.6444,5.651,5.6518,5.6526,5.6649,5.654,5.6546,5.6549,5.681,5.6815,5.6819,0,0,0,0,0,0,5.6314,5.633,5.646,5.6397,5.6412,5.642,5.646,5.6459,5.6481,5.6493,5.6493,5.6471,5.6507,5.6518,5.6598,5.665,5.6548,5.6554,5.6806,5.6812,5.6817,5.6896,0,0,0,0,0,0,5.6309,5.6329,5.6371,5.6399,5.6416,5.6533,5.6463,5.6463,5.6492,5.6485,5.6513,5.6514,5.6506,5.6589,5.6603,5.6656,5.6558,5.6801,5.6809,5.6815,5.6888,5.6903,5.6916,0,0,0,0,0,5.6303,5.6389,5.6373,5.639,5.6469,5.6536,5.6546,5.6536,5.6497,5.6537,5.6544,5.6513,5.6643,5.6598,5.6613,5.6669,5.6798,5.6807,5.6815,5.6882,5.69,5.6916,0,0,0,0,0,0,5.6365,5.6392,5.6375,5.6474,5.6503,5.6527,5.6578,5.6556,5.6596,5.6587,5.6572,5.6578,5.6662,5.6673,5.6623,5.677,5.6713,5.6725,5.6759,5.6777,5.679,5.6785,5.6563,0,0,0,0,0,5.6391,5.6446,5.6466,5.655,5.6566,5.657,5.6599,5.6589,5.6618,5.6629,5.6642,5.667,5.6716,5.6747,5.6791,5.689,5.6894,5.6935,5.6949,5.696,5.697,5.7021,5.704,5.6846,5.6846,5.6846,0,0,5.6443,5.6465,5.65,5.6563,5.6585,5.664,5.658,5.6641,5.6681,5.6638,5.6714,5.6725,5.6754,5.6843,5.6883,5.6855,5.7024,5.6971,5.698,5.6984,5.7032,5.705,5.7066,5.6852,5.6851,5.685,0,0,5.6567,5.659,5.6663,5.6686,5.6721,5.6722,5.674,5.6767,5.6772,5.6849,5.6818,5.6863,5.6945,5.6966,5.6988,5.712,5.7092,5.7134,5.7206,5.7256,5.7271,5.7284,5.733,5.7346,5.7144,5.7144,5.7144,0,5.6627,5.6711,5.6702,5.6766,5.6793,5.6759,5.6831,5.6853,5.6899,5.6918,5.6886,5.6987,5.7004,5.7097,5.713,5.7149,5.7166,5.713,5.727,5.7283,5.7296,5.7339,5.7356,5.7149,5.7149,5.7148,5.7148,0,5.6783,5.6841,5.6895,5.6943,5.6977,5.7044,5.7042,5.7077,5.7064,5.7068,5.7145,5.7165,5.7212,5.7233,5.722,5.7324,5.7306,5.7273,5.7215,5.7319,5.7359,5.7376,5.7156,5.7154,5.7153,5.7152,0,0,5.6947,5.699,5.7009,5.703,5.7065,5.7109,5.7173,5.7221,5.725,5.7283,5.7335,5.7404,5.7374,5.7398,5.7388,5.7432,5.7533,5.7393,5.7393,5.7417,5.7646,5.767,5.769,5.7515,5.7519,5.7521,5.7644,0,5.7072,5.7187,5.718,5.7287,5.734,5.7308,5.7363,5.739,5.7395,5.7438,5.7443,5.7492,5.7449,5.7463,5.7506,5.7512,5.7579,5.7503,5.7561,5.7564,5.7554,5.7711,5.7737,5.7852,5.7659,5.7662,5.7664,0,5.7233,5.7273,5.7386,5.7412,5.7434,5.7485,5.7527,5.757,5.7598,5.7598,5.7626,5.7608,5.767,5.7613,5.7697,5.7646,5.7669,5.7676,5.768,5.7684,5.7619,5.7718,5.7888,5.7905,5.7689,5.7687,5.7685,0,5.734,5.7422,5.75,5.7519,5.7552,5.7588,5.7603,5.7628,5.7657,5.7693,5.7711,5.7753,5.7776,5.7808,5.78,5.7759,5.7886,5.7828,5.7886,5.7886,5.7913,5.7911,5.8088,5.7931,5.793,5.793,5.793,0,5.7479,5.7548,5.7548,5.7596,5.7673,5.7663,5.7738,5.7749,5.7771,5.7818,5.7792,5.7837,5.7825,5.7868,5.7863,5.7932,5.7943,5.7943,5.7941,5.7945,5.7945,5.7959,5.7951,5.7935,5.7934,5.7933,5.7932,0,5.7611,5.7614,5.7696,5.7722,5.7729,5.7785,5.7805,5.7848,5.7852,5.7912,5.7925,5.7929,5.7979,5.7975,5.803,5.8026,5.8112,5.8101,5.8104,5.8101,5.8158,5.8153,5.835,5.8374,5.8202,5.8204,5.8205,0,5.7699,5.7752,5.7784,5.7815,5.7833,5.7883,5.7912,5.7904,5.7935,5.7971,5.801,5.8057,5.8095,5.8175,5.8181,5.8223,5.8211,5.8278,5.8217,5.822,5.8211,5.8207,5.8212,5.8289,5.8291,5.8293,5.8294,0,5.7854,5.7853,5.7898,5.7943,5.798,5.8014,5.8046,5.8072,5.8067,5.8103,5.8154,5.8183,5.824,5.8287,5.8327,5.8339,5.8315,5.8313,5.8328,5.8333,5.8332,5.8332,5.8135,5.8308,5.8307,5.8306,5.8305,5.8304,5.7966,5.8012,5.8041,5.8091,5.8114,5.8144,5.8187,5.8196,5.8239,5.8286,5.8278,5.8335,5.836,5.8411,5.8428,5.847,5.8446,5.8469,5.8474,5.848,5.8486,5.8326,5.8478,5.8477,5.8477,5.8477,5.8476,0,5.8119,5.8136,5.8183,5.8229,5.8268,5.8244,5.8278,5.8311,5.8362,5.8389,5.8427,5.8485,5.853,5.854,5.8583,5.8615,5.8605,5.8626,5.8623,5.8626,5.8506,5.8488,5.8633,5.8633,5.8633,5.8633,5.8633,5.8633,5.8203,5.8278,5.8281,5.8366,5.8382,5.844,5.846,5.8487,5.8508,5.8575,5.8613,5.862,5.8639,5.8683,5.8722,5.8724,5.874,5.8766,5.8763,5.865,5.8634,5.8619,5.8602,5.877,5.877,5.8879,5.888,5.8881]}]]